Location: Casaglia
(44.0333°N, 11.5167°E)
Time: 13:47:34
(UTC+00:00)

FALCON 9 DEB - Pass Details

Date: 07 June 2020
Orbit: 428 x 442 km, 53.0° (Epoch: 15 July)

Event Time Altitude Azimuth Distance (km) Brightness Sun altitude
Rises 02:13:09 0° 304° (NW) 2,410 6.8 -11.5°
Reaches altitude 10° 02:15:15 10° 305° (NW) 1,542 5.8 -11.2°
Maximum altitude 02:18:43 85° 32° (NNE) 442 3.2 -10.8°
Drops below altitude 10° 02:22:12 10° 124° (ESE) 1,542 6.0 -10.4°
Sets 02:24:18 0° 125° (SE) 2,410 7.0 -10.1°
